Weather History for Newark Heath, OH

Change the Weather History Date:

Thursday, October 10, 2013

  Actual Average Record
Temperature  
Mean Temperature 56 °F -  
Max Temperature 75 °F 66 °F 88 °F (1949)
Min Temperature 39 °F 43 °F 28 °F (1951)
Degree Days  
Heating Degree Days 9    
Growing Degree Days 6 (Base 50)    
Moisture  
Dew Point 41 °F    
Average Humidity 80    
Maximum Humidity 100    
Minimum Humidity 26    
Precipitation  
Precipitation 0.00 in - - ()
Sea Level Pressure  
Sea Level Pressure 30.17 in    
Wind  
Wind Speed 0 mph (ENE)    
Max Wind Speed 5 mph    
Max Gust Speed -    
Visibility 6 miles    
Events Fog    
Averages and records for this station are not official NWS values.
T = Trace of Precipitation, MM = Missing Value Source: NWS Daily Summary

Daily Weather History Graph

Daily Weather History Graph

Search for Another Location

Airport:

Trip Planner

Search our weather history database for the weather conditions in past years. The results will help you decide how hot, cold, wet, or windy it might be!

Date:

Astronomy

Oct. 10, 2013 Rise Set
Actual Time 7:35 AM EDT 6:57 PM EDT
Civil Twilight 7:08 AM EDT 7:24 PM EDT
Nautical Twilight 6:36 AM EDT 7:55 PM EDT
Astronomical Twilight 6:05 AM EDT 8:27 PM EDT
Moon 1:25 PM EDT (10/10) 11:34 PM EDT (10/10)
Length of Visible Light 12h 16m
Length of Day
11h 22m
Waxing Crescent, 35% of the Moon is Illuminated
Oct 10
Waxing Crescent
Oct 11
First Quarter
Oct 18
Full
Oct 26
Last Quarter
Nov 3
New

Hourly Weather History & Observations

Time (EDT) Temp. Dew Point Humidity Pressure Visibility Wind Dir Wind Speed Gust Speed Precip Events Conditions
12:54 AM 44.1 °F 41.0 °F 89% 30.19 in 10.0 mi Calm Calm - N/A   Clear
1:45 AM 42.8 °F 39.2 °F 87% 30.19 in 1.5 mi Calm Calm - N/A   Clear
1:52 AM 41.0 °F 39.2 °F 93% 30.19 in 0.2 mi Calm Calm - N/A Fog Fog
1:53 AM 41.0 °F 39.0 °F 93% 30.20 in 0.2 mi Calm Calm - N/A Fog Fog
1:59 AM 42.8 °F 39.2 °F 87% 30.19 in 1.0 mi Calm Calm - N/A   Clear
2:02 AM 42.8 °F 39.2 °F 87% 30.19 in 3.0 mi Calm Calm - N/A   Clear
2:07 AM 42.8 °F 39.2 °F 87% 30.19 in 1.8 mi Calm Calm - N/A   Clear
2:25 AM 41.0 °F 39.2 °F 93% 30.19 in 2.5 mi Calm Calm - N/A   Clear
2:34 AM 41.0 °F 39.2 °F 93% 30.19 in 5.0 mi Calm Calm - N/A   Clear
2:42 AM 42.8 °F 39.2 °F 87% 30.19 in 1.8 mi Calm Calm - N/A   Clear
2:51 AM 41.0 °F 39.2 °F 93% 30.19 in 0.8 mi Calm Calm - N/A   Clear
2:54 AM 41.0 °F 39.0 °F 93% 30.19 in 1.2 mi Calm Calm - N/A   Clear
3:02 AM 41.0 °F 39.2 °F 93% 30.19 in 0.8 mi Calm Calm - N/A   Mist
3:12 AM 41.0 °F 39.2 °F 93% 30.19 in 2.0 mi Calm Calm - N/A   Clear
3:19 AM 41.0 °F 39.2 °F 93% 30.19 in 5.0 mi Calm Calm - N/A   Clear
3:30 AM 41.0 °F 39.2 °F 93% 30.18 in 2.5 mi Calm Calm - N/A   Clear
3:46 AM 41.0 °F 39.2 °F 93% 30.18 in 1.5 mi Calm Calm - N/A   Clear
3:50 AM 41.0 °F 39.2 °F 93% 30.18 in 3.0 mi Calm Calm - N/A   Clear
3:54 AM 41.0 °F 39.0 °F 93% 30.18 in 2.5 mi Calm Calm - N/A   Clear
4:02 AM 41.0 °F 39.2 °F 93% 30.18 in 6.0 mi Calm Calm - N/A   Clear
4:54 AM 41.0 °F 39.0 °F 93% 30.19 in 9.0 mi Calm Calm - N/A   Clear
5:00 AM 39.2 °F 37.4 °F 93% 30.19 in 1.8 mi Calm Calm - N/A   Clear
5:09 AM 39.2 °F 39.2 °F 100% 30.19 in 3.0 mi Calm Calm - N/A   Clear
5:54 AM 39.0 °F 37.9 °F 96% 30.20 in 8.0 mi Calm Calm - N/A   Clear
6:54 AM 39.0 °F 37.9 °F 96% 30.21 in 3.0 mi Calm Calm - N/A   Clear
7:50 AM 39.2 °F 37.4 °F 93% 30.20 in 2.5 mi Calm Calm - N/A   Clear
7:54 AM 39.9 °F 37.9 °F 93% 30.21 in 5.0 mi Calm Calm - N/A   Clear
8:54 AM 46.9 °F 44.1 °F 90% 30.22 in 10.0 mi Calm Calm - N/A   Clear
9:54 AM 53.1 °F 45.0 °F 74% 30.21 in 10.0 mi ENE 4.6 mph - N/A   Clear
10:54 AM 60.1 °F 44.1 °F 55% 30.20 in 10.0 mi Variable 4.6 mph - N/A   Clear
11:54 AM 63.0 °F 43.0 °F 48% 30.19 in 10.0 mi Calm Calm - N/A   Clear
12:54 PM 66.9 °F 42.1 °F 40% 30.17 in 10.0 mi Variable 3.5 mph - N/A   Clear
1:54 PM 70.0 °F 41.0 °F 35% 30.15 in 10.0 mi Calm Calm - N/A   Clear
2:54 PM 73.0 °F 43.0 °F 34% 30.13 in 10.0 mi Variable 3.5 mph - N/A   Clear
3:54 PM 73.9 °F 37.0 °F 26% 30.12 in 10.0 mi ENE 3.5 mph - N/A   Clear
4:54 PM 73.9 °F 39.9 °F 29% 30.12 in 10.0 mi Calm Calm - N/A   Clear
5:54 PM 73.0 °F 42.1 °F 33% 30.10 in 10.0 mi Calm Calm - N/A   Clear
6:54 PM 64.9 °F 48.0 °F 54% 30.10 in 10.0 mi Calm Calm - N/A   Clear
7:54 PM 57.0 °F 48.9 °F 74% 30.10 in 10.0 mi Calm Calm - N/A   Clear
8:54 PM 53.1 °F 48.9 °F 86% 30.10 in 10.0 mi Calm Calm - N/A   Clear
9:54 PM 51.1 °F 48.0 °F 89% 30.10 in 10.0 mi Calm Calm - N/A   Clear
10:54 PM 50.0 °F 46.9 °F 89% 30.10 in 10.0 mi Calm Calm - N/A   Clear
11:54 PM 50.0 °F 46.9 °F 89% 30.09 in 10.0 mi Calm Calm - N/A   Clear